Location: Härggis
(46.9540°N, 8.4897°E)
Time: 12:54:06
(UTC+00:00)

SL-14 R/B - Visible Passes

Search period start: 26 September 2022 00:00
Search period end: 06 October 2022 00:00
Orbit: 516 x 552 km, 82.4° (Epoch: 25 September)

Date Brightness Start Highest point End Pass type
(mag) Time Alt. Az. Time Alt. Az. Time Alt. Az.
26 Sep 3.7 19:04:36 10° NNW 19:08:30 62° W 19:11:31 16° S visible
27 Sep 3.6 18:55:18 10° NNW 18:59:13 64° W 19:03:07 10° S visible
28 Sep 3.6 18:46:00 10° NNW 18:49:55 67° W 18:53:51 10° S visible
29 Sep 3.5 18:36:41 10° NNW 18:40:37 70° W 18:44:34 10° S visible
30 Sep 3.5 18:27:22 10° NNW 18:31:20 72° W 18:35:17 10° S visible
01 Oct 3.5 18:18:04 10° NNW 18:22:02 75° W 18:26:01 10° S visible
02 Oct 3.4 18:08:46 10° NNW 18:12:45 78° W 18:16:44 10° S visible
03 Oct 3.4 17:59:28 10° NNW 18:03:27 81° W 18:07:26 10° S visible
04 Oct 3.4 17:50:10 10° N 17:54:09 84° W 17:58:09 10° S visible
05 Oct 3.3 17:40:51 10° N 17:44:52 87° WSW 17:48:52 10° S visible
